Tracking 32422 objects as of 8-Dec-2025
HD Live streaming from Space Station
objects crossing your sky now

N-1 DEB

Track N-1 DEB now!
10-day predictions


NORAD ID: 14569
Int'l Code: 1982-087D
Perigee: 967.1 km
Apogee: 1,148.9 km
Inclination: 44.8 °
Period: 106.2 minutes
Semi major axis: 7428 km
RCS: 0.0651 m2 (small)
Launch date: September 3, 1982
Source: Japan (JPN)
Launch site: TANEGASHIMA SPACE CENTER (TNSTA)

Note: This is SATELLITE DEBRIS
Your satellite tracking list
Your tracking list is empty




NASA's NSSDC Master Catalog

Two Line Element Set (TLE):
1 14569U 82087D   25340.73259149 -.00000068  00000-0  63345-4 0  9994
2 14569  44.8402 132.6170 0122359 147.9675 231.0984 13.55844482178300
Source of the keplerian elements: AFSPC